DMSP 5D-2 F13 DEB, 40509

Orbit data source: Space-Track

DMSP 5D-2 F13 DEB, 40509 is space debris in SSO originally from a launch on Fri, 24 Mar 1995 UTC launched from the Air Force Western Test Range (AFWTR). Debris objects in space refer to the collection of defunct objects orbiting the Earth. Examples of debris include non-operational satellites, rocket bodies, and fragments generated from explosions, collisions, or faulty payload assembly.

Loading next visibility...
Identifier
40509, 1995-015CV
Orbit
SSO
Last TLE update
1 week ago
Origin
Manufacturer
Unknown
Mission
Spacecraft
Bus & Motor
Unknown
Mass
Unknown
Launch date (UTC)
1995-03-24 (30 years ago)
Launch vehicle
Unknown
Launch site
Air Force Western Test Range (AFWTR)
Object type
Payload
Rocket body
Debris
Shape & HBR
Unknown
Radar Cross Section
Small (<0.1 m²)

Expand to show TLE details & history

TLE from 1 week ago
0 DMSP 5D-2 F13 DEB
1 40509U 95015CV  25113.84704058  .00000911  00000-0  42741-3 0  9998
2 40509  98.6665 132.3277 0024783 110.4126 249.9717 14.22386527523025
Epoch: 2025-04-23T20:19Z
Definitive object data (Epoch: 2025-04-23T20:19:44.306Z)
Latitude
0.00003°
Longitude
-24.73387°
Altitude
826.36 km
Speed
7.437 km/s
True Right ascension
08h 49m 18s
True Declination
0° 00' 00"
Sunlit
Object was in daylight at TLE epoch
Visualization TLE readout
Latitude
-11.29263°
Longitude
160.55213°
Altitude
825.833 km
Speed
7.438 km/s
Apparent Right ascension
20h 25m 33s
Apparent Declination
-25° 11' 56"
Sunlit
Object is in daylight
Visualization observer readout
Local Sidereal Time
07:20:21
Azimuth
312.251° NW
Elevation
-69.933°
Doppler factor
1
Orbital elements
Apogee altitude
832.272 km
Perigee altitude
796.621 km
Semi-major axis
7,192.583 km
Eccentricity
0.0024783
Inclination
98.6665°
RAAN
132.3277°
Arg. of periapsis
110.4126°
True anomaly
249.70517°
Mean anomaly
249.9717°
Eccentric anomaly
249.8384°
Mean motion
3.55808 °/min
BSTAR
0.00042741
Orbital period
101.18 mins
Loading maneuver chart data...
Loading SW <> Apogee altitude chart data...

DMSP 5D-2 F13 DEB Visibility forecast

Observer location: undefined°, undefined°

Span
Click to sort rows by Start time (UTC) header in descending order
Start Az.
Max El. time (UTC)
Max El. Az.
Max El.
End time (UTC)
End Az.
9 mins2025-05-01 00:39:10.037Z142.765° SSE2025-05-01 00:43:10.037Z88.065° E36.682°2025-05-01 00:48:10.037Z359.243° N
5 mins2025-05-01 02:22:10.037Z242.33° WSW2025-05-01 02:24:10.037Z271.265° WNW18.338°2025-05-01 02:27:10.037Z308.677° NW
6 mins2025-05-01 12:58:10.037Z59.753° ENE2025-05-01 13:00:10.037Z87.062° E19.01°2025-05-01 13:04:10.037Z138.598° SSE
8 mins2025-05-01 14:37:10.037Z355.752° N2025-05-01 14:41:10.037Z276.458° WNW36.021°2025-05-01 14:45:10.037Z219.106° SW
|